Home > Weather > Kempten > Past weeks

Flag for Germany Past Weather in Kempten, Bavaria, Germany — Yesterday and Last 2 Weeks

Now
70 °F

Mild.


Feels Like: 70 °F
Forecast: 61 / 74 °F
Wind: 5 mph from Northwest

Location: Altenstadt Airport

Current Time: Jul 23, 2016 at 1:15:12 PM

Latest Report: Jul 23, 2016 at 12:20 PM


Visibility: N/A

Pressure: 30.09 "Hg (27.83 "Hg at 673m altitude)

Humidity: 78%

Dew Point: 63 °F

Location of KemptenLocation

Past Weather in Kempten — Graph

°F

Kempten Temperature Yesterday

Maximum temperature yesterday: 75 °F (at 1:20 PM)
Minimum temperature yesterday: 59 °F (at 5:20 AM)
Average temperature yesterday: 65 °F

High & Low Weather Summary for the Past Weeks

 TemperatureHumidityPressure
High86 °F (Jul 10, 5:20 PM)100% (Jul 12, 2:20 AM)30.36 "Hg (Jul 12, 2:20 AM)
Low46 °F (Jul 13, 11:20 PM)30% (Jul 8, 3:20 PM)29.95 "Hg (Jul 11, 5:20 PM)
Average64 °F74%30.13 "Hg
* Reported Jul 8 11:20 AM — Jul 23 11:20 AM, Kempten, Weather by CustomWeather, © 2016

Note: Actual official high and low records may vary slightly from our data, if they occured in-between our weather recording intervals... More about our weather records

Advertising

Kempten Weather History for the Previous 24 Hours

Scroll right to see more
 ConditionsComfort  
Time TempWeatherWind HumidityBarometerVisibility
11:20 AM
Sat, Jul 23
70 °FMild.3 mph73%30.09 "HgN/A
10:20 AM68 °FMild.5 mph78%30.09 "HgN/A
9:20 AM66 °FMild.6 mph83%30.09 "HgN/A
8:20 AM66 °FMild.3 mph88%30.09 "HgN/A
7:20 AM61 °FCool.2 mph94%30.07 "HgN/A
6:20 AM59 °FCool.2 mph100%30.07 "HgN/A
5:20 AM59 °FCool.1 mph94%30.07 "HgN/A
4:20 AM61 °FCool.5 mph94%30.07 "HgN/A
3:20 AM61 °FCool.3 mph94%30.07 "HgN/A
2:20 AM61 °FCool.2 mph94%30.07 "HgN/A
1:20 AM61 °FCool.3 mph94%30.07 "HgN/A
12:20 AM59 °FCool.5 mph100%30.07 "HgN/A
11:20 PM
Fri, Jul 22
59 °FCool.2 mph94%30.07 "HgN/A
10:20 PM59 °FCool.2 mph94%30.07 "HgN/A
9:20 PM59 °FCool.5 mph100%30.04 "HgN/A
8:20 PM61 °FBroken clouds.5 mph94%30.07 "HgN/A
7:20 PM61 °FRain showers. Broken clouds.5 mph94%30.07 "HgN/A
7:04 PM59 °FRain showers. Broken clouds.3 mph100%30.07 "HgN/A
6:20 PM59 °FThunderstorms. Broken clouds.6 mph94%30.07 "Hg4 mi
5:20 PM72 °FThunderstorms. Partly sunny.6 mph69%30.07 "Hg5 mi
4:20 PM73 °FMore clouds than sun.14 mph65%30.01 "HgN/A
3:20 PM75 °FBroken clouds.15 mph61%30.01 "HgN/A
2:20 PM75 °FPartly sunny.10 mph65%30.01 "HgN/A
1:20 PM75 °FBroken clouds.12 mph61%30.04 "HgN/A
Weather by CustomWeather, © 2016

See weather overviewHow to use our weather pages